カタログに戻る

EPSILON 5 PBS

運用中SSO
NORAD 49404·ROCKET BODY·🇯🇵 Japan
この衛星名は、まだ公式ソースで確認されていません。

打ち上げ Nov 9, 2021 から Uchinoura Space Center

Loading…

次のパス (今後24時間)

TLE

最新Source: Space-Track

元期: Sep 14, 2026, 09:10 UTC

1 49404U 21102K   26257.38212505  .00003379  00000-0  14677-3 0  9995
2 49404  97.3169 296.3195 0016428 262.1282  97.8090 15.22862355267453

AllMySatでEPSILON 5 PBSをリアルタイム追跡

Download on the App Store